COSMOS 2454 1 35635U 09039A 21019.14071397 .00000033 00000-0 13930-4 0 9994 2 35635 82.9567 84.3622 0019903 145.4179 214.8289 13.89658154583267 STERKH 1 1 35636U 09039B 21018.64544208 .00000036 00000-0 15966-4 0 9999 2 35636 82.9561 84.1497 0021147 141.1050 219.1641 13.89870124582862 SL-8 R/B 1 35637U 09039C 21019.17879892 -.00000000 00000-0 -13073-4 0 9999 2 35637 82.9537 75.1141 0017503 98.7468 314.3513 13.91329774583953